sat.trackr.live / text

‹ back to catalog

ARIRANG-3 (KOMPSAT-3)

NORAD 38338 · 2012-025B

PAYLOAD ACTIVE UNKNOWN

§ Identity

Operator
Country
SKOR
Launch date
2012-05-17
Launch site
TANSC
Launch vehicle
Mass (kg)
RCS (m²)
5.26

Purposes: earth_obs

External: N2YO · Heavens-Above · Gunter

§ Orbital elements

Epoch: 2026-05-25T04:14:28.072320Z

Period
98.48 min
Inclination
98.1159°
Eccentricity
0.0005302
Mean motion
14.62182362 rev/d
Perigee alt
682.4 km
Apogee alt
689.9 km
Semi-major
7,064.3 km
B*
8.4777e-5
RAAN
103.0363°
Arg perigee
172.1281°
Mean anomaly
188.0004°
Rev number
74,798

§ Raw data

ARIRANG-3 (KOMPSAT-3)1 38338U 12025B   26145.17671380  .00000380  00000+0  84777-4 0  99932 38338  98.1159 103.0363 0005302 172.1281 188.0004 14.62182362747989

JSON: /api/v1/satellites/38338 · /tle

For live sub-satellite position, see the globe view (requires WebGL).

§ Visibility from observer

Set your observer location to see the next 7 days of passes ≥ 10°. The values pass through the URL so the page stays shareable.

No JS? Fill the form by hand. The geolocation button needs JavaScript.

§ Radio — SatNOGS DB

ModeDescriptionDownlinkUplink
BPSK S-band telemetry 2.232 GHz
FM S-band telemetry (inactive) 2.234 GHz

2 transmitters · refreshed weekly from db.satnogs.org